SUD1A ULLI-UWGG

Flight info

Callsign SUD1A
Flight time 1h 24m
Altitude 39000
Route SUGIN1B SUGIN T873 NIRGI T73 DESUD P164 GAKLU N869 RANTO
Aircraft A320/M-SDFGHILORVWY/S

Departure

Time 2026-04-21 08:20
Airport Pulkovo Airport (ULLI)

Arrival

Time 2026-04-21 09:44
Airport Nizhny Novgorod / Strigino International Airport (UWGG)
Time Latitude Longitude Altitude Speed Heading
2026-04-21 08:02 59.79740 30.26610 86 ft 0 kts 107°
2026-04-21 08:14 59.79743 30.26589 88 ft 3 kts 107°
2026-04-21 08:14 59.79749 30.26551 87 ft 2 kts 106°
2026-04-21 08:14 59.79751 30.26536 87 ft 1 kts 106°
2026-04-21 08:15 59.79751 30.26534 87 ft 0 kts 106°
2026-04-21 08:16 59.79751 30.26535 87 ft 0 kts 107°
2026-04-21 08:16 59.79726 30.26514 86 ft 9 kts 213°
2026-04-21 08:16 59.79673 30.26454 86 ft 9 kts 199°
2026-04-21 08:17 59.79610 30.26415 83 ft 12 kts 197°
2026-04-21 08:17 59.79514 30.26362 85 ft 15 kts 183°
2026-04-21 08:17 59.79471 30.26529 85 ft 16 kts 107°
2026-04-21 08:17 59.79437 30.26755 88 ft 18 kts 107°
2026-04-21 08:18 59.79399 30.27012 85 ft 20 kts 106°
2026-04-21 08:18 59.79356 30.27295 89 ft 22 kts 107°
2026-04-21 08:18 59.79310 30.27605 87 ft 24 kts 106°
2026-04-21 08:18 59.79260 30.27937 90 ft 26 kts 106°
2026-04-21 08:19 59.79218 30.28181 89 ft 12 kts 124°
2026-04-21 08:19 59.79149 30.28244 90 ft 11 kts 166°
2026-04-21 08:19 59.79078 30.28266 92 ft 10 kts 180°
2026-04-21 08:19 59.79043 30.28195 88 ft 9 kts 274°
2026-04-21 08:20 59.79106 30.27768 87 ft 72 kts 287°
2026-04-21 08:20 59.79321 30.26336 85 ft 141 kts 286°
2026-04-21 08:20 59.79639 30.24230 488 ft 162 kts 288°
2026-04-21 08:20 59.79959 30.22127 1498 ft 158 kts 289°
2026-04-21 08:21 59.80277 30.19984 2363 ft 171 kts 290°
2026-04-21 08:21 59.80633 30.17590 2898 ft 192 kts 289°
2026-04-21 08:21 59.81038 30.14872 3407 ft 217 kts 289°
2026-04-21 08:21 59.81484 30.11876 4148 ft 231 kts 289°
2026-04-21 08:22 59.81943 30.08780 5226 ft 235 kts 290°
2026-04-21 08:22 59.82401 30.05644 6290 ft 238 kts 290°
2026-04-21 08:22 59.82840 30.02450 7300 ft 243 kts 284°
2026-04-21 08:22 59.82690 29.99037 8222 ft 259 kts 251°
2026-04-21 08:23 59.81565 29.96188 9159 ft 272 kts 214°
2026-04-21 08:23 59.79806 29.94751 10129 ft 277 kts 196°
2026-04-21 08:23 59.77938 29.93682 11044 ft 281 kts 195°
2026-04-21 08:23 59.75996 29.93204 11913 ft 285 kts 171°
2026-04-21 08:24 59.74126 29.94363 12778 ft 282 kts 144°
2026-04-21 08:24 59.72645 29.96960 13308 ft 292 kts 119°
2026-04-21 08:24 59.71804 30.00692 13676 ft 305 kts 97°
2026-04-21 08:24 59.71447 30.04922 13978 ft 327 kts 94°
2026-04-21 08:25 59.71093 30.09487 14414 ft 342 kts 94°
2026-04-21 08:25 59.70722 30.14193 15161 ft 348 kts 94°
2026-04-21 08:25 59.70340 30.18935 15964 ft 351 kts 95°
2026-04-21 08:25 59.69949 30.23734 16754 ft 354 kts 94°
2026-04-21 08:26 59.69555 30.28565 17528 ft 357 kts 94°
2026-04-21 08:26 59.69154 30.33445 18303 ft 361 kts 95°
2026-04-21 08:26 59.68744 30.38378 18990 ft 365 kts 95°
2026-04-21 08:26 59.68327 30.43349 19665 ft 368 kts 94°
2026-04-21 08:27 59.67907 30.48357 20346 ft 371 kts 94°
2026-04-21 08:27 59.67480 30.53412 21040 ft 374 kts 94°
2026-04-21 08:27 59.67047 30.58507 21725 ft 377 kts 94°
2026-04-21 08:27 59.66611 30.63643 22393 ft 380 kts 94°
2026-04-21 08:28 59.66172 30.68818 23037 ft 383 kts 94°
2026-04-21 08:28 59.65726 30.74038 23666 ft 386 kts 94°
2026-04-21 08:28 59.65272 30.79295 24189 ft 389 kts 94°
2026-04-21 08:28 59.64812 30.84588 24742 ft 391 kts 94°
2026-04-21 08:29 59.64349 30.89901 25255 ft 393 kts 94°
2026-04-21 08:29 59.63882 30.95239 25749 ft 395 kts 94°
2026-04-21 08:29 59.63413 31.00602 26226 ft 397 kts 94°
2026-04-21 08:29 59.62939 31.05993 26696 ft 399 kts 94°
2026-04-21 08:30 59.62459 31.11415 27161 ft 402 kts 94°
2026-04-21 08:30 59.61974 31.16861 27612 ft 404 kts 94°
2026-04-21 08:30 59.61484 31.22337 28051 ft 406 kts 94°
2026-04-21 08:30 59.60985 31.27844 28485 ft 408 kts 94°
2026-04-21 08:31 59.60483 31.33379 28899 ft 411 kts 94°
2026-04-21 08:31 59.59980 31.38945 29297 ft 413 kts 94°
2026-04-21 08:31 59.59473 31.44537 29686 ft 415 kts 94°
2026-04-21 08:31 59.58960 31.50157 30094 ft 417 kts 94°
2026-04-21 08:32 59.58440 31.55804 30406 ft 420 kts 95°
2026-04-21 08:32 59.57910 31.61483 30656 ft 422 kts 95°
2026-04-21 08:32 59.57373 31.67207 30893 ft 426 kts 95°
2026-04-21 08:32 59.56830 31.72970 31122 ft 429 kts 95°
2026-04-21 08:33 59.56281 31.78762 31350 ft 431 kts 95°
2026-04-21 08:33 59.55729 31.84575 31657 ft 431 kts 95°
2026-04-21 08:33 59.55176 31.90389 31968 ft 432 kts 96°
2026-04-21 08:33 59.54620 31.96209 32279 ft 432 kts 96°
2026-04-21 08:34 59.54025 32.02030 32584 ft 435 kts 99°
2026-04-21 08:34 59.53041 32.07711 32888 ft 442 kts 109°
2026-04-21 08:34 59.51570 32.13076 33201 ft 449 kts 118°
2026-04-21 08:34 59.49635 32.17955 33545 ft 456 kts 129°
2026-04-21 08:35 59.47386 32.22378 33858 ft 458 kts 131°
2026-04-21 08:35 59.45117 32.26789 34183 ft 458 kts 131°
2026-04-21 08:35 59.42858 32.31201 34474 ft 458 kts 131°
2026-04-21 08:35 59.40599 32.35615 34768 ft 458 kts 131°
2026-04-21 08:36 59.38337 32.40026 35047 ft 458 kts 131°
2026-04-21 08:36 59.36077 32.44423 35317 ft 458 kts 131°
2026-04-21 08:36 59.33813 32.48817 35609 ft 458 kts 131°
2026-04-21 08:36 59.31577 32.53136 35878 ft 458 kts 131°
2026-04-21 08:37 59.29306 32.57503 36147 ft 457 kts 131°
2026-04-21 08:37 59.27035 32.61857 36428 ft 457 kts 132°
2026-04-21 08:37 59.24761 32.66213 36676 ft 458 kts 132°
2026-04-21 08:37 59.22491 32.70561 36933 ft 457 kts 132°
2026-04-21 08:38 59.20217 32.74905 37193 ft 457 kts 132°
2026-04-21 08:38 59.17943 32.79245 37427 ft 457 kts 132°
2026-04-21 08:38 59.15675 32.83574 37671 ft 457 kts 132°
2026-04-21 08:38 59.13402 32.87903 37912 ft 457 kts 132°
2026-04-21 08:39 59.11128 32.92221 38149 ft 457 kts 133°
2026-04-21 08:39 59.08854 32.96524 38388 ft 456 kts 133°
2026-04-21 08:39 59.06574 33.00829 38621 ft 456 kts 133°
2026-04-21 08:39 59.04298 33.05117 38834 ft 456 kts 133°
2026-04-21 08:40 59.02021 33.09406 39011 ft 456 kts 133°
2026-04-21 08:40 58.97457 33.17978 39134 ft 457 kts 133°
2026-04-21 08:41 58.92882 33.26528 39138 ft 457 kts 133°
2026-04-21 08:41 58.88300 33.35066 39136 ft 457 kts 133°
2026-04-21 08:42 58.83722 33.43574 39146 ft 457 kts 133°
2026-04-21 08:42 58.79120 33.52073 39131 ft 459 kts 133°
2026-04-21 08:43 58.74505 33.60566 39138 ft 459 kts 134°
2026-04-21 08:43 58.69878 33.69041 39132 ft 459 kts 134°
2026-04-21 08:44 58.65246 33.77509 39132 ft 460 kts 134°
2026-04-21 08:44 58.60607 33.85957 39149 ft 460 kts 134°
2026-04-21 08:45 58.55961 33.94398 39134 ft 461 kts 134°
2026-04-21 08:45 58.51293 34.02820 39132 ft 461 kts 134°
2026-04-21 08:46 58.46614 34.11222 39128 ft 462 kts 134°
2026-04-21 08:46 58.41931 34.19610 39128 ft 462 kts 134°
2026-04-21 08:47 58.37243 34.27980 39133 ft 462 kts 134°
2026-04-21 08:47 58.32553 34.36326 39129 ft 461 kts 134°
2026-04-21 08:48 58.27858 34.44649 39120 ft 461 kts 134°
2026-04-21 08:48 58.23157 34.52932 39119 ft 461 kts 135°
2026-04-21 08:49 58.18421 34.61125 39113 ft 461 kts 136°
2026-04-21 08:49 58.13513 34.68970 39124 ft 462 kts 138°
2026-04-21 08:50 58.08532 34.76665 39110 ft 462 kts 138°
2026-04-21 08:50 58.03640 34.84267 39110 ft 462 kts 137°
2026-04-21 08:51 57.98732 34.91992 39100 ft 463 kts 137°
2026-04-21 08:51 57.93788 34.99753 39099 ft 463 kts 138°
2026-04-21 08:52 57.88831 35.07488 39108 ft 463 kts 137°
2026-04-21 08:52 57.83863 35.15183 39099 ft 463 kts 138°
2026-04-21 08:53 57.78895 35.22862 39083 ft 463 kts 138°
2026-04-21 08:53 57.73926 35.30526 39085 ft 463 kts 137°
2026-04-21 08:54 57.68953 35.38166 39086 ft 463 kts 138°
2026-04-21 08:54 57.63977 35.45785 39084 ft 462 kts 136°
2026-04-21 08:55 57.59901 35.54875 39069 ft 455 kts 116°
2026-04-21 08:55 57.57473 35.65667 39064 ft 451 kts 108°
2026-04-21 08:56 57.55315 35.76654 39050 ft 452 kts 108°
2026-04-21 08:56 57.53124 35.87618 39044 ft 452 kts 109°
2026-04-21 08:57 57.50919 35.98566 39041 ft 452 kts 109°
2026-04-21 08:57 57.48715 36.09508 39039 ft 452 kts 109°
2026-04-21 08:58 57.46895 36.18599 39022 ft 452 kts 108°
2026-04-21 08:58 57.44691 36.29605 39020 ft 451 kts 108°
2026-04-21 08:59 57.42483 36.40524 39001 ft 452 kts 108°
2026-04-21 08:59 57.40272 36.51427 39009 ft 452 kts 108°
2026-04-21 09:00 57.38045 36.62322 38986 ft 452 kts 108°
2026-04-21 09:00 57.35798 36.73199 38986 ft 452 kts 109°
2026-04-21 09:01 57.33543 36.84060 38967 ft 452 kts 109°
2026-04-21 09:01 57.31279 36.94923 38968 ft 452 kts 108°
2026-04-21 09:02 57.29011 37.05776 38955 ft 453 kts 109°
2026-04-21 09:02 57.26733 37.16638 38948 ft 454 kts 110°
2026-04-21 09:03 57.23295 37.32858 38926 ft 455 kts 110°
2026-04-21 09:03 57.20978 37.43710 38927 ft 455 kts 110°
2026-04-21 09:04 57.18694 37.54592 38910 ft 454 kts 106°
2026-04-21 09:04 57.18015 37.60249 38911 ft 452 kts 95°
2026-04-21 09:04 57.17887 37.66022 38909 ft 450 kts 85°
2026-04-21 09:05 57.19266 37.77181 38898 ft 448 kts 68°
2026-04-21 09:05 57.21502 37.87906 38895 ft 448 kts 69°
2026-04-21 09:06 57.23709 37.98674 38897 ft 449 kts 69°
2026-04-21 09:06 57.25917 38.09546 38896 ft 449 kts 69°
2026-04-21 09:07 57.28105 38.20366 38895 ft 449 kts 69°
2026-04-21 09:07 57.30273 38.31124 38897 ft 450 kts 69°
2026-04-21 09:08 57.32446 38.41975 38898 ft 450 kts 69°
2026-04-21 09:08 57.34605 38.52844 38901 ft 450 kts 69°
2026-04-21 09:09 57.36753 38.63737 38910 ft 450 kts 69°
2026-04-21 09:09 57.38895 38.74649 38887 ft 451 kts 70°
2026-04-21 09:10 57.41021 38.85566 38881 ft 452 kts 69°
2026-04-21 09:10 57.43157 38.96549 38879 ft 453 kts 70°
2026-04-21 09:11 57.45283 39.07570 38881 ft 454 kts 70°
2026-04-21 09:11 57.46927 39.18843 38869 ft 454 kts 85°
2026-04-21 09:12 57.46308 39.30463 38867 ft 455 kts 107°
2026-04-21 09:12 57.43549 39.41029 38857 ft 457 kts 119°
2026-04-21 09:13 57.40332 39.51211 38855 ft 458 kts 120°
2026-04-21 09:13 57.37094 39.61382 38843 ft 459 kts 120°
2026-04-21 09:14 57.33849 39.71559 38842 ft 459 kts 120°
2026-04-21 09:14 57.30587 39.81727 38839 ft 460 kts 120°
2026-04-21 09:15 57.27315 39.91881 38841 ft 460 kts 120°
2026-04-21 09:15 57.24041 40.02035 38848 ft 460 kts 120°
2026-04-21 09:16 57.20742 40.12176 38840 ft 461 kts 121°
2026-04-21 09:16 57.17432 40.22300 38841 ft 461 kts 120°
2026-04-21 09:17 57.14114 40.32428 38839 ft 462 kts 121°
2026-04-21 09:17 57.10786 40.42537 38830 ft 462 kts 121°
2026-04-21 09:18 57.07452 40.52633 38835 ft 462 kts 121°
2026-04-21 09:18 57.04112 40.62702 38833 ft 461 kts 121°
2026-04-21 09:19 57.00769 40.72762 38835 ft 461 kts 121°
2026-04-21 09:19 56.99094 40.77778 38676 ft 461 kts 121°
2026-04-21 09:19 56.97420 40.82782 38456 ft 460 kts 121°
2026-04-21 09:20 56.95747 40.87772 38187 ft 459 kts 121°
2026-04-21 09:20 56.94072 40.92751 37917 ft 459 kts 121°
2026-04-21 09:20 56.92395 40.97721 37659 ft 458 kts 121°
2026-04-21 09:20 56.90717 41.02676 37398 ft 458 kts 121°
2026-04-21 09:21 56.89037 41.07631 37141 ft 458 kts 121°
2026-04-21 09:21 56.87360 41.12577 36882 ft 458 kts 121°
2026-04-21 09:21 56.85682 41.17520 36628 ft 458 kts 121°
2026-04-21 09:21 56.84001 41.22458 36376 ft 458 kts 121°
2026-04-21 09:22 56.82319 41.27395 36128 ft 458 kts 121°
2026-04-21 09:22 56.80631 41.32325 35883 ft 458 kts 120°
2026-04-21 09:22 56.78966 41.37181 35645 ft 458 kts 121°
2026-04-21 09:22 56.77253 41.42165 35413 ft 458 kts 120°
2026-04-21 09:23 56.75589 41.47008 35175 ft 457 kts 120°
2026-04-21 09:23 56.73902 41.51910 34936 ft 456 kts 120°
2026-04-21 09:23 56.72216 41.56797 34698 ft 456 kts 121°
2026-04-21 09:23 56.70525 41.61679 34171 ft 456 kts 120°
2026-04-21 09:24 56.68821 41.66587 33030 ft 460 kts 121°
2026-04-21 09:24 56.67107 41.71518 31891 ft 461 kts 120°
2026-04-21 09:24 56.65393 41.76443 30718 ft 462 kts 120°
2026-04-21 09:24 56.63679 41.81354 29836 ft 456 kts 120°
2026-04-21 09:25 56.61995 41.86160 29070 ft 446 kts 120°
2026-04-21 09:25 56.60345 41.90866 28348 ft 438 kts 120°
2026-04-21 09:25 56.58720 41.95494 27625 ft 431 kts 120°
2026-04-21 09:25 56.57118 42.00046 26931 ft 425 kts 120°
2026-04-21 09:26 56.55538 42.04531 26235 ft 419 kts 120°
2026-04-21 09:26 56.53974 42.08953 25552 ft 414 kts 120°
2026-04-21 09:26 56.52424 42.13325 24883 ft 410 kts 120°
2026-04-21 09:26 56.50893 42.17645 24228 ft 406 kts 119°
2026-04-21 09:27 56.49379 42.21919 23591 ft 401 kts 119°
2026-04-21 09:27 56.47878 42.26150 22912 ft 397 kts 119°
2026-04-21 09:27 56.46392 42.30324 22316 ft 392 kts 119°
2026-04-21 09:27 56.44923 42.34438 21804 ft 387 kts 118°
2026-04-21 09:28 56.43470 42.38501 21244 ft 383 kts 118°
2026-04-21 09:28 56.42034 42.42511 20746 ft 378 kts 118°
2026-04-21 09:28 56.40612 42.46467 20218 ft 373 kts 118°
2026-04-21 09:28 56.39204 42.50378 19714 ft 369 kts 118°
2026-04-21 09:29 56.37812 42.54244 19210 ft 366 kts 118°
2026-04-21 09:29 56.36434 42.58074 18699 ft 363 kts 118°
2026-04-21 09:29 56.35067 42.61874 18175 ft 360 kts 118°
2026-04-21 09:29 56.33704 42.65656 17602 ft 358 kts 118°
2026-04-21 09:30 56.32349 42.69405 17068 ft 355 kts 118°
2026-04-21 09:30 56.31005 42.73115 16536 ft 353 kts 118°
2026-04-21 09:30 56.29666 42.76800 16004 ft 351 kts 118°
2026-04-21 09:30 56.28333 42.80467 15490 ft 349 kts 119°
2026-04-21 09:31 56.27005 42.84114 14932 ft 348 kts 120°
2026-04-21 09:31 56.25681 42.87743 14395 ft 346 kts 120°
2026-04-21 09:31 56.24364 42.91351 13865 ft 345 kts 120°
2026-04-21 09:31 56.23048 42.94944 13290 ft 343 kts 120°
2026-04-21 09:32 56.21739 42.98512 12712 ft 340 kts 120°
2026-04-21 09:32 56.20444 43.02033 12176 ft 336 kts 120°
2026-04-21 09:32 56.19161 43.05519 11625 ft 333 kts 120°
2026-04-21 09:32 56.17888 43.08978 11069 ft 330 kts 120°
2026-04-21 09:33 56.16626 43.12403 10515 ft 328 kts 120°
2026-04-21 09:33 56.15382 43.15774 10223 ft 317 kts 120°
2026-04-21 09:33 56.14188 43.18995 10097 ft 303 kts 120°
2026-04-21 09:33 56.12948 43.21961 9928 ft 294 kts 128°
2026-04-21 09:34 56.11454 43.24442 9679 ft 291 kts 135°
2026-04-21 09:34 56.09941 43.26768 9549 ft 290 kts 135°
2026-04-21 09:34 56.08414 43.29126 9409 ft 290 kts 135°
2026-04-21 09:34 56.06887 43.31484 9107 ft 289 kts 135°
2026-04-21 09:35 56.05367 43.33824 8729 ft 286 kts 135°
2026-04-21 09:35 56.03857 43.36141 8547 ft 287 kts 135°
2026-04-21 09:35 56.02346 43.38457 8165 ft 285 kts 135°
2026-04-21 09:35 56.00843 43.40759 7764 ft 284 kts 135°
2026-04-21 09:36 55.99441 43.43197 7361 ft 278 kts 124°
2026-04-21 09:36 55.98432 43.46089 6964 ft 272 kts 110°
2026-04-21 09:36 55.97868 43.49248 6566 ft 264 kts 97°
2026-04-21 09:36 55.97486 43.52443 6176 ft 262 kts 97°
2026-04-21 09:37 55.97095 43.55600 5760 ft 259 kts 98°
2026-04-21 09:37 55.96704 43.58715 5371 ft 255 kts 98°
2026-04-21 09:37 55.96473 43.61803 5017 ft 246 kts 83°
2026-04-21 09:37 55.96791 43.64657 4980 ft 225 kts 66°
2026-04-21 09:38 55.97511 43.66996 4957 ft 207 kts 50°
2026-04-21 09:38 55.98486 43.68747 4922 ft 193 kts 35°
2026-04-21 09:38 55.99619 43.69921 4816 ft 186 kts 22°
2026-04-21 09:38 56.00855 43.70538 4601 ft 184 kts 13°
2026-04-21 09:39 56.02111 43.70991 4354 ft 184 kts 13°
2026-04-21 09:39 56.03356 43.71441 4100 ft 182 kts 13°
2026-04-21 09:39 56.04587 43.71887 3846 ft 179 kts 13°
2026-04-21 09:39 56.05802 43.72327 3600 ft 177 kts 13°
2026-04-21 09:40 56.07003 43.72762 3342 ft 175 kts 13°
2026-04-21 09:40 56.08173 43.73186 3119 ft 167 kts 13°
2026-04-21 09:40 56.09285 43.73589 2866 ft 159 kts 13°
2026-04-21 09:40 56.10337 43.73972 2643 ft 150 kts 12°
2026-04-21 09:41 56.11019 43.74219 2497 ft 145 kts 12°
2026-04-21 09:41 56.11958 43.74561 2290 ft 131 kts 11°
2026-04-21 09:41 56.12802 43.74869 2148 ft 118 kts 10°
2026-04-21 09:41 56.13597 43.75158 1969 ft 115 kts
2026-04-21 09:42 56.14379 43.75442 1799 ft 114 kts
2026-04-21 09:42 56.15152 43.75724 1635 ft 113 kts
2026-04-21 09:42 56.15924 43.76005 1481 ft 113 kts
2026-04-21 09:42 56.16694 43.76285 1315 ft 112 kts
2026-04-21 09:43 56.17453 43.76562 1125 ft 114 kts
2026-04-21 09:43 56.18230 43.76845 969 ft 115 kts
2026-04-21 09:43 56.19016 43.77132 812 ft 115 kts
2026-04-21 09:43 56.19806 43.77420 662 ft 115 kts
2026-04-21 09:44 56.20598 43.77711 487 ft 118 kts 10°
2026-04-21 09:44 56.21401 43.78000 335 ft 117 kts
2026-04-21 09:44 56.22154 43.78275 267 ft 92 kts 11°
2026-04-21 09:44 56.22604 43.78441 265 ft 41 kts 12°
2026-04-21 09:45 56.22771 43.78502 267 ft 19 kts 11°
2026-04-21 09:45 56.22898 43.78547 267 ft 18 kts 11°
2026-04-21 09:45 56.23016 43.78590 269 ft 17 kts 12°
2026-04-21 09:45 56.23134 43.78634 269 ft 18 kts 12°
2026-04-21 09:46 56.23262 43.78680 267 ft 20 kts 11°
2026-04-21 09:46 56.23406 43.78734 266 ft 22 kts 11°
2026-04-21 09:46 56.23556 43.78785 263 ft 18 kts 10°
2026-04-21 09:46 56.23596 43.78860 264 ft 3 kts 89°
2026-04-21 09:47 56.23590 43.78899 265 ft 7 kts 112°
2026-04-21 09:47 56.23554 43.79010 266 ft 13 kts 120°
2026-04-21 09:47 56.23498 43.79185 266 ft 18 kts 126°
2026-04-21 09:47 56.23440 43.79221 266 ft 7 kts 199°
2026-04-21 09:48 56.23349 43.79176 266 ft 19 kts 191°
2026-04-21 09:48 56.23199 43.79121 266 ft 24 kts 191°
2026-04-21 09:48 56.23034 43.79060 266 ft 21 kts 192°
2026-04-21 09:48 56.22892 43.79007 266 ft 17 kts 192°
2026-04-21 09:49 56.22777 43.78966 266 ft 15 kts 192°
2026-04-21 09:49 56.22699 43.78937 266 ft 11 kts 191°
2026-04-21 09:49 56.22612 43.78904 266 ft 15 kts 192°
2026-04-21 09:49 56.22498 43.78862 266 ft 19 kts 191°
2026-04-21 09:50 56.22364 43.78789 266 ft 21 kts 192°
2026-04-21 09:50 56.22286 43.78760 266 ft 13 kts 191°
2026-04-21 09:50 56.22175 43.78826 266 ft 0 kts 147°